TimePDT,TemperatureF,Dew PointF,Humidity,Sea Level PressureIn,VisibilityMPH,Wind Direction,Wind SpeedMPH,Gust SpeedMPH,PrecipitationIn,Events,Conditions,WindDirDegrees,DateUTC
12:56 AM,48.9,21.9,35,29.95,10.0,Calm,Calm,-,N/A,,Clear,0,2012-10-03 07:56:00
1:56 AM,46.0,21.0,37,29.96,10.0,WSW,3.5,-,N/A,,Clear,250,2012-10-03 08:56:00
2:56 AM,42.1,23.0,47,29.98,10.0,ESE,4.6,-,N/A,,Clear,120,2012-10-03 09:56:00
3:56 AM,43.0,21.0,42,29.99,10.0,SE,5.8,-,N/A,,Clear,140,2012-10-03 10:56:00
4:56 AM,42.1,21.9,45,30.01,10.0,East,4.6,-,N/A,,Clear,90,2012-10-03 11:56:00
5:56 AM,37.0,21.0,52,30.02,10.0,Calm,Calm,-,N/A,,Clear,0,2012-10-03 12:56:00
6:56 AM,35.1,17.1,48,30.09,10.0,West,6.9,-,N/A,,Clear,280,2012-10-03 13:56:00
7:56 AM,50.0,15.1,25,30.09,10.0,NNW,8.1,-,N/A,,Clear,330,2012-10-03 14:56:00
8:56 AM,53.1,17.1,24,30.11,10.0,Calm,Calm,-,N/A,,Clear,0,2012-10-03 15:56:00
9:56 AM,61.0,14.0,16,30.10,10.0,NNE,13.8,17.3,N/A,,Clear,20,2012-10-03 16:56:00
10:56 AM,64.0,14.0,14,30.10,10.0,NNE,15.0,21.9,N/A,,Clear,20,2012-10-03 17:56:00
11:56 AM,66.9,12.9,12,30.09,10.0,NNE,15.0,-,N/A,,Clear,20,2012-10-03 18:56:00
12:56 PM,69.1,12.0,11,30.07,10.0,NNE,9.2,17.3,N/A,,Clear,30,2012-10-03 19:56:00
1:56 PM,72.0,12.0,10,30.06,10.0,NNE,6.9,-,N/A,,Clear,20,2012-10-03 20:56:00
2:56 PM,73.9,12.0,9,30.05,10.0,NE,5.8,-,N/A,,Clear,40,2012-10-03 21:56:00
3:56 PM,73.9,10.9,9,30.04,10.0,Variable,4.6,-,N/A,,Clear,0,2012-10-03 22:56:00
4:56 PM,73.0,10.0,9,30.04,10.0,North,10.4,-,N/A,,Clear,360,2012-10-03 23:56:00
5:56 PM,68.0,6.1,9,30.06,10.0,NNW,9.2,-,N/A,,Clear,340,2012-10-04 00:56:00
6:56 PM,60.1,1.9,10,30.08,10.0,NNW,11.5,-,N/A,,Clear,340,2012-10-04 01:56:00
7:56 PM,57.0,3.9,12,30.06,10.0,North,5.8,-,N/A,,Clear,350,2012-10-04 02:56:00
8:56 PM,54.0,-0.0,11,30.07,10.0,NW,8.1,-,N/A,,Clear,320,2012-10-04 03:56:00
9:56 PM,48.0,-2.9,12,30.08,10.0,WNW,4.6,-,N/A,,Clear,290,2012-10-04 04:56:00
10:56 PM,43.0,-2.9,15,30.10,10.0,WNW,6.9,-,N/A,,Clear,290,2012-10-04 05:56:00
11:56 PM,41.0,-4.0,15,30.10,10.0,Calm,Calm,-,N/A,,Clear,0,2012-10-04 06:56:00